User: anonymous   Login
Location: Arrakis Observatory
(44.1122°N, 95.7153°W)
Time: 21:57:03
(UTC-06:00)
Language:

Coronas F rocket - Orbit

View from above orbital plane
View from above orbital plane
View from above satellite
View from above satellite

Ground track
Ground track

The orbit data is extracted from the following two-line orbital elements,

1 26874U 01032B   16037.85230910  .00023409  00000-0  16153-3 0  9995
2 26874  82.4604  65.0393 0007386 358.0133   2.1100 15.74372634814937
Epoch (UTC): 06 February 2016 20:27:19
Eccentricity: 0.0007386
inclination: 82.4604°
perigee height: 341 km
apogee height: 351 km
right ascension of ascending node: 65.0393°
argument of perigee: 358.0133°
revolutions per day: 15.74372634
mean anomaly at epoch: 2.1100°
orbit number at epoch: 81493

The dashed part of the orbit path shows where the satellite is in the earth's shadow,  

DLR